Wind_Speed
13 11 10 10 11 11 10 11 12 12 12 11 10 10 9 8 8 8 8 8 8 7 6 6 6 7 7 9 10 12 13 14 14 15 15 15 14 14 14 16 18 20 21 20 20 19 18 17 18 18 17 15 14 13 12 12 12 11 10 10 9 9 7 5 4 3 3 3 3
12 12 11 12 12 12 12 11 11 11 11 10 10 9 8 8 8 8 8 8 9 9 9 9 9 10 11 11 12 13 14 14 14 14 15 15 15 15 15 15 16 18 18 16 14 13 13 14 16 17 16 14 13 11 10 9 9 9 9 8 7 6 4 3 2 2 2 2 3
13 12 12 11 12 12 11 10 9 9 9 9 9 8 9 9 9 10 10 11 11 12 12 12 12 13 13 14 15 16 16 17 17 17 17 17 17 17 17 17 18 19 19 17 16 15 15 15 17 18 17 15 14 13 11 9 8 7 6 5 4 3 2 2 1 1 2 2 3
13 12 11 11 11 11 11 10 10 10 10 10 10 10 10 11 11 12 14 14 14 14 14 15 15 15 16 17 18 19 20 20 21 21 21 20 20 19 19 19 20 21 20 19 18 17 16 15 15 15 14 13 11 10 9 8 6 5 4 3 2 1 1 1 1 2 2 2 2
12 12 11 11 12 12 12 12 12 12 11 11 12 13 14 15 16 17 18 19 19 19 18 18 19 19 19 20 21 22 22 23 23 23 22 21 20 19 18 18 18 18 17 16 15 14 12 10 10 10 9 8 7 6 5 5 4 4 3 2 2 1 1 1 2 2 2 2 2
13 13 13 13 13 13 13 13 14 14 13 13 16 18 19 20 21 22 22 22 22 21 21 21 20 20 20 20 21 22 22 23 23 23 22 22 20 19 17 16 15 14 14 13 12 10 9 8 7 7 6 5 5 5 5 5 5 4 4 3 3 3 3 3 3 3 3 3 3
16 16 15 15 15 15 16 16 17 18 19 20 22 23 23 23 23 23 23 22 22 21 20 19 19 18 18 18 19 20 20 21 21 21 21 21 20 18 17 16 15 14 14 13 11 10 8 7 6 5 4 3 3 3 4 4 4 4 4 4 5 5 5 5 5 5 4 3 3
19 19 19 18 19 19 20 21 21 23 24 24 25 25 24 24 23 23 22 22 21 20 19 18 17 17 17 17 18 18 19 19 19 19 19 18 18 17 16 15 14 14 13 13 12 10 8 7 5 4 3 2 2 2 2 3 3 4 4 4 4 4 5 5 4 4 3 3 4
22 22 22 22 23 24 24 25 26 26 26 26 25 25 24 23 23 22 22 21 20 19 18 17 16 16 16 16 17 17 17 17 17 17 17 16 15 14 14 13 12 12 11 11 10 9 8 6 5 4 3 2 2 2 2 2 3 4 4 4 4 3 3 3 2 2 2 3 3
25 25 25 26 26 26 27 27 27 27 27 26 25 24 23 23 22 21 21 20 18 17 17 16 15 15 15 15 15 15 15 15 15 15 14 14 13 12 12 11 10 10 9 8 7 6 5 4 3 2 2 2 2 2 3 3 4 5 5 4 4 3 2 2 2 1 2 2 2
27 27 26 26 26 27 27 27 27 26 26 25 24 23 22 22 21 20 19 18 18 17 16 15 14 13 14 14 14 14 14 13 13 13 13 13 12 12 11 11 10 9 8 8 7 5 4 3 2 2 2 2 3 3 3 4 5 5 5 5 4 3 2 2 1 1 1 1 2
27 26 26 26 26 26 26 26 25 25 24 24 22 21 21 20 20 19 19 18 18 18 16 15 13 13 13 13 13 12 12 12 12 12 12 12 11 11 10 10 9 8 8 6 5 4 2 2 3 4 4 4 4 3 3 3 4 4 4 4 3 2 2 1 0 1 1 2 3
27 26 25 25 25 25 24 23 23 22 21 20 19 19 19 19 19 19 18 18 19 18 17 16 16 15 15 15 14 14 13 13 12 12 11 11 10 10 9 8 7 6 5 3 3 3 4 5 5 5 6 5 4 3 3 3 3 3 3 3 2 2 1 2 2 3 3 3 4
25 24 23 23 22 21 21 19 18 18 17 17 17 18 18 19 19 19 19 19 19 19 18 18 18 18 17 17 17 16 16 15 15 14 14 13 12 11 9 8 7 6 6 5 5 5 5 5 5 5 5 5 4 3 3 3 3 3 3 3 3 3 3 4 4 4 5 5 5
24 23 21 20 19 18 17 17 16 16 17 17 18 19 19 19 19 19 19 19 19 19 19 19 18 18 18 17 17 17 17 16 16 16 16 15 14 13 12 11 10 9 8 7 6 5 5 4 4 4 4 3 3 3 3 4 4 4 4 5 5 5 5 5 5 6 6 6 6
23 21 19 18 17 17 18 18 18 18 19 19 19 20 20 19 20 20 19 19 19 19 19 18 18 18 17 17 16 16 16 15 15 15 14 14 13 12 11 10 9 9 8 7 6 5 4 3 3 3 3 3 3 4 4 5 5 5 5 6 6 6 6 6 6 6 6 6 6
22 20 19 19 19 20 20 21 21 21 20 20 20 20 20 19 19 19 19 19 19 18 18 18 17 17 16 16 15 15 14 14 14 13 13 12 11 10 9 8 8 7 6 5 4 4 3 3 3 4 4 4 5 5 6 6 6 6 6 6 6 6 6 7 7 7 7 7 6
21 20 21 21 22 23 23 22 22 21 21 20 19 19 19 19 19 19 19 18 18 18 17 17 16 16 15 15 14 13 13 13 12 12 11 10 9 8 8 7 6 5 5 4 3 3 4 4 5 5 6 6 6 6 6 7 7 7 7 7 7 7 7 7 7 7 7 7 7
21 22 22 23 23 23 23 22 22 21 20 19 19 19 19 19 19 18 18 18 17 16 16 16 15 15 14 14 13 13 12 12 11 11 10 9 8 7 7 6 5 5 5 4 5 5 5 5 6 6 6 7 7 7 7 7 7 7 7 7 7 7 7 7 7 7 7 7 7
22 22 22 22 22 22 22 21 21 20 19 19 19 19 19 18 18 18 17 17 16 15 15 15 14 14 13 13 12 12 11 11 10 9 8 8 7 7 6 6 5 5 5 5 5 5 5 6 6 6 7 7 7 7 7 7 7 7 7 7 7 7 7 7 7 7 7 7 7
22 22 22 22 22 22 21 21 20 19 19 19 19 18 18 18 17 17 17 16 15 14 14 14 13 13 13 12 11 11 10 9 9 8 7 7 6 6 6 5 5 5 5 5 5 5 6 6 6 7 7 7 7 7 7 7 7 7 7 7 7 8 8 8 8 8 8 8 8
22 22 22 22 21 21 20 20 19 19 18 18 18 18 17 17 17 16 15 14 13 13 13 13 12 12 11 11 10 10 9 8 8 7 7 6 6 6 6 5 5 5 5 5 5 5 6 6 7 7 8 8 7 7 7 8 8 8 8 8 8 8 9 9 8 8 9 9 9
22 21 21 21 20 20 19 19 18 18 18 17 17 17 16 16 15 15 14 13 12 12 12 11 11 10 10 9 9 8 8 7 7 7 6 6 6 6 6 6 6 6 5 5 5 6 6 6 7 7 7 8 8 8 8 8 8 8 9 9 9 9 9 9 9 9 9 9 9
21 21 21 20 19 19 18 18 17 17 17 17 16 16 15 15 14 13 12 12 11 11 11 10 10 9 9 9 8 8 8 7 7 7 7 7 7 7 7 7 7 7 6 6 6 6 6 6 6 7 7 8 8 8 8 8 9 9 9 9 10 10 9 9 9 10 10 10 10
21 21 20 19 19 18 18 17 17 17 16 16 15 14 14 13 12 12 11 11 11 10 10 10 9 9 9 9 8 8 8 8 8 8 8 8 8 8 8 8 8 8 8 8 7 7 6 6 7 7 8 8 8 9 8 9 9 9 10 10 10 11 11 10 10 10 10 10 11
21 21 20 19 18 18 17 17 16 16 15 14 14 13 13 12 12 11 11 11 11 10 10 9 9 9 9 9 9 9 9 9 9 9 9 9 9 9 9 9 9 9 9 9 9 8 7 6 7 7 8 8 9 9 9 9 9 10 11 11 11 11 11 11 11 11 11 11 11
21 20 19 19 18 18 17 17 16 15 15 14 14 13 13 12 12 11 11 11 11 10 10 10 10 10 9 9 9 9 9 9 9 9 9 10 10 10 10 10 10 10 10 10 10 9 8 7 7 8 8 9 9 9 10 10 10 11 11 11 11 11 11 11 12 12 11 11 11
20 19 19 19 19 18 18 17 16 16 15 14 14 13 13 12 12 12 11 11 10 10 10 10 10 10 10 9 9 9 9 9 9 9 9 9 9 9 9 9 9 10 10 10 10 10 9 8 8 8 9 9 9 10 10 10 10 10 10 10 10 10 10 10 11 11 11 11 11
19 18 18 18 18 18 17 17 16 16 15 14 13 13 12 12 12 12 11 11 11 11 11 11 10 10 10 10 9 9 9 9 9 9 9 9 9 9 9 9 9 9 10 10 10 10 9 9 9 9 9 9 9 9 10 10 10 10 10 10 10 10 10 10 10 11 11 11 12
17 17 18 18 18 18 17 17 16 15 15 14 13 13 13 12 12 12 12 11 11 11 11 11 10 10 10 9 9 9 9 9 9 9 9 10 10 9 9 9 9 10 10 10 10 10 9 9 9 9 10 10 10 10 10 10 10 10 10 10 10 11 11 11 11 12 12 12 12
17 17 17 18 18 17 17 16 16 15 14 14 13 13 13 13 13 12 12 12 11 11 10 10 10 10 9 9 9 9 9 9 10 10 10 11 11 11 11 11 11 10 10 10 10 10 10 9 9 10 10 10 10 10 11 11 11 11 11 11 11 12 12 12 12 12 12 13 13
16 16 16 16 16 16 16 15 15 14 14 13 13 13 13 13 12 12 12 12 11 11 11 11 11 11 10 10 10 10 10 11 11 11 11 12 12 13 13 13 12 12 11 11 11 11 11 10 10 10 10 11 11 11 12 12 12 12 12 13 13 13 13 13 13 13 13 13 14
15 15 14 14 14 14 14 14 14 13 13 13 13 13 13 13 12 12 12 12 12 12 12 12 12 12 12 12 12 12 12 12 11 12 12 12 13 13 13 13 13 13 13 13 12 12 12 12 12 11 11 11 12 12 12 12 12 13 13 13 13 14 14 14 14 14 14 14 14
14 13 13 13 13 13 13 13 13 13 12 13 13 13 13 13 13 13 13 13 13 12 12 12 12 12 12 12 12 12 12 12 12 12 13 13 13 14 14 13 13 14 15 15 14 14 14 14 13 13 12 12 13 12 12 12 13 13 14 14 14 14 14 14 15 15 15 15 15
15 14 13 13 13 13 13 12 12 12 13 13 13 13 13 12 12 12 13 13 12 12 12 12 12 12 12 12 12 12 13 13 13 14 14 14 14 15 15 15 15 16 17 17 16 16 15 15 14 14 13 13 13 13 12 13 13 14 14 15 15 15 15 15 15 15 15 15 15
15 14 13 13 13 12 12 12 12 12 12 12 11 11 11 11 10 11 11 12 11 11 10 11 11 12 12 12 13 13 14 14 15 15 15 15 16 16 17 17 17 17 18 18 18 17 17 16 15 14 14 13 13 12 12 12 13 14 14 15 15 15 15 15 15 15 16 16 16
13 13 12 11 11 10 10 10 10 10 9 9 9 9 9 10 9 10 11 11 11 11 12 12 13 13 14 15 16 16 16 16 16 17 17 17 17 17 17 19 19 19 19 19 19 19 18 17 15 14 14 14 13 13 13 13 13 14 14 15 15 15 15 15 16 16 16 16 16
11 10 9 8 8 8 8 9 9 8 8 8 8 9 9 10 9 10 11 12 13 14 14 15 15 16 17 18 19 19 18 18 17 17 18 18 18 18 18 20 20 21 21 20 20 20 19 17 16 14 14 14 14 13 13 13 14 14 15 15 16 16 16 16 16 16 16 16 17
8 7 7 7 7 8 9 9 8 8 8 9 9 10 11 11 11 12 13 14 15 15 16 16 17 18 19 19 20 20 20 20 19 18 18 19 19 19 19 20 21 21 21 21 21 20 19 17 16 15 14 14 14 14 14 14 15 15 16 16 16 17 17 16 16 16 16 17 17
6 6 7 8 9 10 10 9 9 9 10 11 12 13 13 14 14 14 15 15 16 16 17 17 18 19 20 20 21 22 22 22 21 20 19 19 19 19 19 19 20 21 22 22 21 20 18 16 15 14 14 13 13 13 14 14 15 16 16 16 16 16 16 16 15 16 16 17 18
8 9 10 10 10 11 11 10 11 12 13 14 14 15 15 16 16 16 16 17 17 17 18 18 19 20 20 20 20 21 22 23 22 20 19 19 19 19 19 19 19 20 21 21 20 19 17 16 15 14 14 13 13 13 14 14 15 16 16 16 16 16 16 16 16 16 17 18 18
Wind_Direction
200 206 211 214 218 219 218 215 217 218 218 217 216 217 216 211 201 198 200 200 195 190 181 170 158 150 148 155 169 181 189 193 192 191 188 183 176 171 172 178 185 192 197 203 207 207 203 195 188 183 178 173 170 169 172 178 180 180 180 185 190 192 187 176 168 167 174 187 201
193 199 203 204 207 211 213 211 210 209 208 206 202 198 193 183 168 157 151 148 147 146 143 137 133 129 128 132 141 150 156 160 162 163 161 157 151 146 142 144 153 165 173 179 183 183 177 168 160 155 151 146 142 143 150 164 171 174 178 183 187 188 184 172 167 186 216 226 235
183 187 189 189 192 195 195 192 190 188 185 181 179 174 168 159 148 137 129 126 128 129 125 119 115 113 112 114 118 125 130 133 136 137 135 130 127 123 120 119 124 131 136 137 136 135 135 133 130 128 127 127 127 125 125 130 140 149 153 155 161 168 169 158 166 225 251 256 264
172 173 171 167 168 168 168 165 163 161 158 153 151 149 146 140 134 127 121 118 116 113 110 107 103 101 100 100 101 105 110 114 117 118 116 113 109 106 103 103 105 109 114 117 118 118 119 117 115 114 115 120 124 124 122 121 123 126 128 130 138 149 159 201 241 251 256 261 272
159 159 157 153 151 151 152 148 144 143 142 140 135 131 128 124 121 117 113 109 105 102 100 99 96 94 92 92 91 92 94 97 99 101 100 99 96 93 91 90 92 96 101 105 108 110 111 109 105 105 109 116 125 136 147 158 162 165 174 186 190 181 179 202 225 236 236 229 236
133 134 136 137 138 142 142 137 134 133 135 135 126 120 117 115 113 110 107 104 102 99 97 95 93 91 89 86 84 82 81 81 82 83 83 82 81 80 78 75 73 74 77 79 83 85 87 86 89 95 104 116 132 153 173 185 187 195 208 222 232 234 229 224 225 228 231 226 228
121 121 122 124 126 128 129 127 126 125 124 122 118 114 113 111 109 107 105 103 100 98 95 92 90 88 85 82 79 77 75 74 73 73 73 72 73 73 72 68 64 61 59 57 57 57 57 59 68 80 94 115 140 164 183 196 211 230 244 250 254 253 247 240 240 240 239 238 240
117 117 117 118 119 120 120 120 119 118 117 114 113 112 111 110 108 106 104 102 99 97 94 91 89 87 85 83 80 78 77 76 76 75 74 74 74 73 72 68 63 59 56 53 52 51 52 55 67 82 101 124 152 179 201 218 232 239 241 239 243 245 244 241 240 236 233 236 241
111 111 113 114 114 115 115 115 115 114 112 111 111 110 109 108 107 105 103 101 100 98 96 92 90 88 87 85 83 81 80 80 79 79 79 78 77 75 73 70 64 59 55 51 49 49 52 57 70 85 100 121 143 167 189 204 207 208 208 208 209 215 222 225 219 212 213 219 223
106 107 108 109 110 111 112 112 112 111 110 109 109 109 109 108 107 105 104 103 102 100 96 93 90 88 85 83 81 80 79 79 79 78 78 77 75 72 69 65 60 55 49 43 39 37 38 42 55 74 97 122 143 161 177 186 185 184 185 188 184 177 177 190 190 189 198 214 227
105 105 105 105 107 109 110 109 108 108 108 107 107 108 108 107 106 105 105 105 103 100 97 94 90 86 83 80 78 77 76 75 74 73 71 69 65 61 57 52 47 42 36 31 24 23 27 41 68 106 129 146 159 168 175 180 178 174 171 169 167 163 163 171 181 199 244 278 289
105 105 105 105 107 108 108 106 106 106 107 107 107 106 106 106 106 106 107 107 105 103 102 100 97 94 91 89 87 85 82 79 76 72 69 65 60 55 50 44 39 35 31 27 25 33 63 104 129 139 143 149 157 164 167 167 164 159 152 146 145 146 146 125 39 342 321 317 317
104 104 104 105 106 106 105 104 104 104 105 106 106 106 106 107 108 109 109 108 107 107 107 108 108 106 105 104 103 102 99 95 90 84 79 75 70 65 60 56 53 52 54 62 82 111 128 138 141 141 139 140 144 145 140 128 116 108 102 99 99 91 60 21 6 355 345 339 336
104 103 103 104 104 104 103 102 101 102 102 103 104 105 106 107 109 110 110 108 107 107 108 108 108 108 108 108 107 106 105 103 101 98 96 95 94 94 94 96 100 106 113 121 127 131 133 135 133 130 127 124 121 113 97 84 75 67 58 51 44 36 23 11 3 358 354 352 346
102 102 103 104 104 104 104 103 102 101 101 100 102 104 106 107 109 110 110 108 106 106 106 105 104 103 103 103 103 102 102 101 101 100 101 102 104 106 109 112 115 117 119 119 120 121 119 116 112 108 105 96 82 63 48 43 41 36 30 23 19 11 4 360 357 353 348 345 341
102 103 105 106 106 106 105 104 103 101 101 100 102 104 105 106 107 107 106 105 104 104 103 101 100 99 99 98 97 97 96 95 94 94 95 96 97 99 101 103 105 106 107 107 107 104 97 87 76 68 60 50 37 25 17 13 11 9 7 5 0 356 351 348 344 340 336 332 331
104 105 106 107 106 104 103 102 101 100 100 100 102 103 103 103 102 101 100 99 99 99 98 97 96 95 94 92 91 90 88 87 87 86 86 86 87 88 88 89 90 91 92 93 90 81 65 44 23 11 6 5 0 356 353 350 349 347 346 346 343 341 338 335 330 328 326 324 321
103 103 103 102 101 100 100 99 99 98 98 98 98 98 98 97 96 95 94 93 93 92 91 90 89 88 86 84 83 81 79 79 78 78 78 77 77 77 76 74 72 69 65 58 47 32 18 6 354 347 343 341 340 338 337 336 336 334 332 332 329 327 325 324 323 321 319 317 313
99 98 97 97 97 97 97 97 96 95 94 94 94 93 92 91 90 89 88 86 85 84 83 82 80 78 76 74 73 71 70 69 69 69 68 67 65 63 60 55 49 41 31 21 11 2 353 347 342 338 336 335 334 331 330 330 330 330 329 327 325 323 322 321 319 317 314 311 308
95 94 94 94 94 95 94 94 93 92 91 90 89 88 87 85 84 82 80 78 76 75 74 73 71 69 67 65 64 62 61 59 59 58 57 53 51 47 41 34 28 20 12 5 359 353 347 342 338 337 336 337 336 334 333 333 333 332 330 327 324 322 320 318 316 313 310 307 304
92 91 92 92 93 92 91 90 89 88 87 86 84 82 80 78 76 74 72 70 68 67 65 64 63 61 59 57 55 54 53 51 49 47 44 41 37 32 26 20 15 9 3 359 355 353 349 347 345 343 342 342 339 337 335 335 332 330 327 324 321 318 317 315 312 310 307 304 302
90 91 91 90 90 89 89 87 86 85 82 80 78 76 73 71 69 67 65 64 62 60 59 57 56 54 53 50 49 47 45 43 40 37 34 30 26 22 17 12 7 3 0 359 359 359 358 355 352 349 346 343 338 335 333 330 327 324 321 319 317 315 314 312 309 305 303 301 299
90 90 89 88 88 87 86 84 82 80 78 75 72 70 68 66 64 63 61 59 58 56 55 54 52 51 49 47 45 42 39 35 31 27 23 19 15 11 7 4 2 0 359 358 360 1 0 356 351 347 343 338 334 332 329 326 324 321 318 316 314 312 311 308 305 302 301 299 298
88 88 87 86 85 84 82 81 78 76 73 70 68 66 65 63 62 60 58 56 55 53 52 51 50 48 45 43 39 35 31 27 23 19 14 10 6 3 0 358 357 356 353 349 350 351 351 349 347 342 337 332 330 328 325 322 320 317 315 314 312 310 308 305 303 301 300 299 298
86 86 85 83 82 81 79 77 74 72 70 68 66 65 64 62 60 58 56 55 53 51 49 48 45 42 38 34 30 26 22 18 14 11 7 4 1 358 355 353 350 347 343 339 335 335 339 342 341 336 330 327 325 322 319 316 314 313 311 310 308 307 305 303 302 300 298 297 296
84 84 83 81 80 79 77 74 73 71 69 68 66 64 63 61 59 56 54 52 50 47 44 42 39 35 31 26 22 18 14 10 6 3 359 356 354 351 349 346 343 339 335 331 328 326 328 333 332 327 323 321 319 317 315 312 310 308 307 305 304 303 302 301 300 299 297 296 294
83 81 80 80 79 77 75 74 72 71 69 67 65 63 61 59 56 54 51 48 44 41 37 34 31 27 23 18 14 10 7 3 359 356 352 349 347 344 342 339 335 332 329 326 322 319 318 321 322 321 319 317 315 312 309 307 305 303 301 300 298 297 296 295 296 296 295 294 292
80 79 79 77 76 74 73 72 70 68 67 64 62 60 58 54 52 49 45 42 37 33 29 26 23 19 15 12 8 4 0 357 353 350 346 343 341 338 335 332 329 326 323 320 316 313 311 314 317 318 317 315 311 307 302 299 298 296 294 291 289 288 287 287 288 290 291 290 290
78 77 76 74 72 70 69 67 65 64 62 60 58 55 52 49 46 43 39 35 31 28 25 22 18 14 11 9 4 360 355 351 347 343 340 337 334 331 329 325 323 320 317 315 312 310 309 313 316 318 317 313 308 302 298 293 290 288 286 283 282 281 281 281 282 283 285 286 286
74 72 70 69 67 65 63 61 59 58 56 54 52 50 47 44 41 38 34 31 28 25 22 18 14 11 8 4 359 354 350 345 341 337 334 330 327 325 323 321 318 316 315 313 311 310 311 313 315 314 311 307 302 297 292 287 285 282 280 278 276 276 276 277 278 279 280 281 282
68 66 64 63 61 59 57 55 54 52 50 48 46 44 42 40 37 34 31 28 25 21 16 12 9 6 1 356 352 348 344 340 337 334 331 327 324 322 320 319 318 316 315 314 313 313 311 309 308 307 305 303 296 291 287 283 281 278 276 274 274 274 275 276 276 276 277 279 280
63 61 60 58 57 55 53 51 49 47 45 42 40 38 36 34 31 27 24 21 17 13 9 5 1 357 353 349 346 343 339 337 334 332 328 325 323 321 319 318 316 315 315 315 314 312 308 304 300 300 300 300 294 288 284 281 278 276 274 273 272 273 273 275 276 277 277 278 279
60 58 57 56 54 52 49 46 44 42 39 35 32 30 27 23 20 16 14 11 8 5 2 358 356 352 349 345 342 340 337 335 331 328 325 322 320 319 317 315 312 311 312 313 312 309 305 302 299 298 298 299 294 289 284 280 277 275 273 272 272 272 273 273 275 276 277 278 278
56 55 53 51 49 45 42 39 36 33 30 27 24 21 18 14 11 8 6 4 1 358 356 353 351 348 345 342 338 336 334 330 326 323 321 319 317 315 313 310 306 306 308 310 309 307 304 302 300 299 299 300 295 290 284 280 277 275 273 273 273 273 273 273 274 275 276 277 277
50 49 46 43 41 37 34 30 27 25 23 21 19 15 12 9 6 2 360 358 355 352 348 345 343 342 339 336 333 330 328 326 323 321 319 317 315 313 310 307 304 304 306 307 308 307 305 303 301 301 302 302 297 291 285 281 279 276 274 273 273 273 273 273 274 275 276 277 277
42 41 39 36 33 30 27 24 21 20 19 17 13 9 6 4 360 356 354 352 349 344 340 337 336 335 332 330 328 325 324 322 321 319 318 316 314 312 309 307 305 305 306 307 308 308 307 305 304 304 304 303 298 292 287 284 281 278 276 276 275 275 276 277 278 278 278 278 278
37 35 34 32 29 26 22 19 18 16 13 8 3 359 357 355 352 349 348 347 343 339 336 335 333 331 329 327 325 323 322 320 319 318 316 315 313 311 309 307 306 306 306 308 309 310 309 307 305 305 305 303 298 294 290 286 283 282 281 281 281 282 282 283 282 281 280 279 279
34 33 32 30 27 23 19 17 15 10 3 357 354 352 351 350 348 345 344 343 340 337 335 334 332 330 328 326 325 323 321 319 317 316 314 313 312 311 309 308 307 306 307 308 309 310 309 307 305 305 305 302 299 295 292 289 287 286 285 286 286 286 286 285 284 283 281 280 280
34 33 31 29 25 20 17 15 10 3 357 354 352 351 350 349 346 344 342 341 339 337 334 332 330 328 327 325 323 321 319 318 316 314 313 312 311 310 309 308 307 306 306 307 309 309 308 306 304 305 304 301 298 295 292 290 288 287 287 286 287 286 285 284 283 282 282 281 281
32 29 27 24 20 16 12 8 2 357 355 354 352 350 349 347 345 343 341 340 338 336 333 330 327 326 325 324 321 319 318 317 315 313 312 311 310 309 308 307 306 306 306 307 308 309 307 305 304 304 304 300 296 293 291 289 287 286 285 284 285 285 285 283 282 282 282 282 282
27 24 21 18 14 10 5 1 357 355 354 353 351 349 347 346 344 342 340 338 336 333 330 327 325 324 323 321 319 317 316 315 314 313 311 310 308 307 307 305 305 305 306 307 308 308 306 304 303 303 301 298 295 292 289 287 285 284 283 282 282 283 284 284 283 282 281 281 281
Height
737 737 738 739 740 740 739 740 740 741 742 742 742 743 743 743 743 743 743 743 744 744 744 744 744 743 743 743 743 743 743 743 743 743 743 743 743 743 744 745 745 746 747 748 749 750 752 752 752 752 753 755 756 757 758 760 760 762 763 765 766 766 767 767 766 766 767 767 768
735 736 736 737 738 738 739 739 740 740 741 741 742 742 742 742 742 743 743 743 743 743 743 743 743 743 743 742 742 742 742 742 742 742 742 742 742 743 743 744 744 745 746 748 750 751 752 752 752 752 753 755 756 758 759 760 761 762 763 764 765 765 765 765 765 766 766 767 768
735 735 736 736 737 737 738 739 739 740 740 741 741 741 741 742 742 743 743 743 743 743 743 743 743 743 743 742 742 742 742 742 742 742 742 742 743 743 744 744 744 744 745 747 749 751 752 752 752 752 753 754 756 757 759 760 761 762 763 764 764 764 764 765 765 765 766 767 767
734 735 735 736 736 737 737 738 739 739 740 740 740 741 741 742 742 743 743 743 743 743 743 744 744 744 743 743 743 742 742 742 742 742 742 743 743 744 745 745 745 745 746 748 750 751 752 752 752 752 753 754 756 757 759 760 761 762 763 764 764 764 764 764 765 765 766 766 766
734 734 735 735 736 736 737 738 739 739 740 740 740 741 741 742 743 743 744 744 744 744 745 745 745 745 745 745 744 744 743 742 742 742 743 744 745 745 746 747 747 748 749 750 751 752 753 753 753 754 755 756 757 759 760 761 762 763 764 765 765 765 765 765 765 765 766 766 766
733 734 735 735 736 736 737 738 739 739 740 741 741 742 742 743 744 744 744 744 745 745 745 745 746 746 746 745 745 745 744 743 743 743 743 744 745 745 746 748 749 750 750 751 752 753 754 754 755 755 756 757 759 760 761 762 763 764 765 765 765 765 765 765 765 765 765 765 765
734 734 735 736 736 737 738 739 739 740 740 741 742 742 743 744 744 744 745 745 745 746 746 746 746 746 746 746 745 745 745 744 744 743 743 744 745 746 747 749 750 751 752 753 754 755 755 756 756 757 758 759 760 761 762 763 764 764 765 765 765 765 765 765 765 765 765 765 765
734 735 736 736 737 738 739 740 740 741 741 742 743 744 744 745 745 745 745 745 746 746 747 747 747 747 746 746 746 745 745 745 744 744 745 745 746 747 749 750 751 753 754 755 755 756 757 758 759 760 761 761 762 763 763 764 764 764 765 765 765 765 764 764 764 764 764 764 764
735 736 737 738 739 739 740 740 741 742 742 743 744 745 745 745 746 746 746 746 747 747 747 747 747 747 747 747 746 746 746 745 745 745 746 747 748 749 750 752 753 754 755 756 758 759 760 761 761 762 763 763 763 764 764 764 764 764 765 765 765 765 764 764 763 763 763 763 763
736 738 739 739 740 740 741 742 742 743 743 744 745 745 746 746 746 747 747 747 748 748 748 748 748 748 748 747 747 747 747 747 747 747 747 748 749 750 751 752 754 755 756 758 759 760 761 762 763 763 764 764 764 764 764 764 764 765 765 765 765 764 764 763 763 763 762 762 762
738 739 740 740 741 742 742 743 743 744 745 745 746 746 747 747 747 748 748 748 748 748 748 749 749 749 748 748 748 748 748 748 748 748 748 749 750 750 751 753 754 755 757 758 760 761 762 763 763 764 764 764 764 764 764 764 764 765 765 764 764 763 763 762 762 761 761 761 760
739 740 741 742 743 743 744 744 745 746 746 747 747 748 748 748 749 749 749 749 749 749 749 749 750 750 749 749 749 749 749 749 749 749 749 749 750 751 752 753 754 755 757 759 760 761 762 763 764 764 764 764 764 764 764 764 764 763 763 762 762 761 761 760 760 760 760 759 759
740 741 742 744 744 745 745 746 747 748 749 749 749 749 749 750 750 750 750 750 749 749 750 750 750 750 750 750 750 750 749 749 749 749 749 749 750 751 752 753 755 756 758 760 761 762 763 764 764 764 764 764 764 763 763 763 762 761 761 760 760 759 759 758 758 758 758 758 758
742 743 744 745 746 747 748 749 749 750 750 750 750 750 750 750 750 750 750 750 750 750 750 750 750 750 750 750 750 750 750 749 749 749 749 750 750 751 752 754 755 757 759 760 761 762 763 763 763 763 763 763 762 762 761 760 760 759 759 758 758 757 757 757 757 757 757 757 757
743 745 746 747 748 749 750 750 751 751 751 751 751 750 750 750 751 751 751 751 751 751 751 751 751 751 751 751 751 751 750 750 750 750 750 751 751 752 753 755 756 757 759 760 761 762 762 762 762 762 762 761 760 760 759 758 758 757 757 756 756 756 756 756 756 756 756 756 756
746 748 749 750 750 750 751 751 751 751 751 751 751 751 751 751 752 752 752 752 752 752 752 752 752 752 752 752 752 751 751 751 751 751 752 752 753 754 755 755 756 758 759 760 760 761 761 761 761 760 760 759 759 758 757 757 756 756 756 755 755 755 755 755 755 755 755 755 755
749 750 751 751 751 751 750 751 751 751 751 751 751 752 752 752 753 753 753 753 753 753 753 753 753 753 753 752 752 752 752 752 752 752 753 754 755 755 756 757 757 758 759 760 760 760 760 760 759 759 758 758 757 756 756 756 755 755 755 755 755 755 755 755 755 755 755 755 755
751 751 751 751 750 750 750 751 751 751 752 752 752 753 753 753 753 753 753 753 753 753 753 753 753 753 753 752 752 752 753 753 753 754 754 755 756 756 757 757 758 759 759 759 759 759 758 758 758 757 757 757 756 756 756 755 755 755 755 755 755 754 754 754 754 755 755 755 755
751 751 751 751 751 751 751 751 752 752 753 753 753 754 754 754 754 753 753 753 753 753 753 753 753 753 753 753 753 753 754 754 754 755 756 756 757 757 758 758 758 758 758 758 758 758 758 758 757 757 757 756 756 756 755 755 755 755 754 754 754 754 754 754 754 754 754 754 754
751 751 751 751 752 752 752 753 753 753 754 754 754 754 754 754 753 753 753 753 753 753 753 753 753 753 753 754 754 754 755 755 756 756 757 757 757 758 758 758 758 758 758 758 758 758 758 757 757 757 757 756 756 755 755 755 755 754 754 754 754 754 754 754 754 754 754 754 754
751 752 752 753 753 753 753 754 754 754 755 755 754 754 754 754 753 753 753 754 754 754 754 754 754 754 754 755 755 755 756 756 757 757 758 758 758 758 758 758 758 758 758 758 758 758 758 757 757 757 756 756 756 755 755 755 755 754 754 754 754 754 753 753 753 753 753 753 753
753 753 754 754 754 754 754 755 755 755 755 755 755 755 754 754 754 754 754 755 755 755 755 755 755 755 756 756 756 757 757 758 758 758 758 758 759 759 759 759 758 758 758 758 758 758 757 757 757 757 756 756 755 755 755 755 754 754 754 754 753 753 753 753 752 752 752 752 752
754 755 755 755 755 755 755 756 756 756 755 755 755 755 755 755 755 755 756 756 756 756 756 756 757 757 757 758 758 758 759 759 759 759 759 759 759 759 759 758 758 758 758 757 757 757 757 757 757 756 756 755 755 755 754 754 754 754 753 753 753 752 752 752 752 751 751 751 751
755 755 756 756 756 756 757 757 757 756 756 756 756 756 756 756 757 757 757 758 758 758 758 758 759 759 759 759 759 759 759 759 759 759 759 759 759 758 758 758 758 757 757 757 757 757 756 756 756 756 756 755 755 755 754 754 754 753 753 753 752 752 752 751 751 751 751 750 750
757 757 757 757 758 758 758 758 758 758 758 758 758 758 758 758 759 759 759 759 760 760 760 760 760 760 760 760 760 760 760 759 759 759 759 759 758 758 758 758 757 757 757 757 756 756 756 756 756 755 755 755 755 754 754 754 753 753 752 752 752 751 751 751 750 750 750 750 750
759 759 759 760 760 760 760 759 759 759 760 760 760 760 760 760 760 761 761 761 761 761 761 761 760 760 760 760 760 760 760 759 759 759 759 758 758 758 758 757 757 757 757 756 756 756 756 755 755 755 755 755 755 754 754 753 753 752 752 751 751 751 750 750 750 750 750 750 749
761 761 761 761 761 761 761 761 761 761 761 762 762 762 762 762 762 762 762 762 761 761 761 761 761 760 760 760 760 760 760 759 759 759 759 758 758 758 758 757 757 757 757 756 756 756 755 755 755 755 755 755 754 754 753 753 752 752 751 751 751 750 750 750 750 749 749 749 748
763 763 763 763 763 763 763 763 763 763 763 763 763 763 763 763 762 762 762 762 762 761 761 761 761 761 760 760 760 760 760 760 760 759 759 759 759 758 758 758 757 757 757 756 756 755 755 755 755 754 754 754 754 754 753 752 752 751 751 751 750 750 750 750 749 749 748 748 748
765 765 765 764 764 764 764 764 764 764 764 764 764 763 763 763 763 763 762 762 762 762 762 762 762 761 761 761 761 761 760 760 760 760 759 759 759 759 758 758 757 757 756 756 755 755 755 754 754 754 754 754 753 753 753 752 752 751 751 750 750 750 749 749 749 748 748 747 747
766 765 765 765 765 765 764 764 764 764 764 764 764 764 764 764 764 763 763 763 763 763 763 763 763 763 762 762 762 761 761 760 760 760 759 759 758 758 758 757 757 756 756 755 755 755 754 754 754 753 753 753 753 753 752 752 751 751 750 750 749 749 749 748 748 747 747 747 746
766 766 765 765 765 765 765 765 765 765 765 765 765 765 765 765 765 765 765 764 764 764 764 764 763 763 763 762 762 761 761 760 760 759 759 758 758 757 757 756 756 756 755 755 754 754 754 753 753 753 753 753 752 752 752 751 751 750 750 749 749 748 748 747 747 746 746 745 745
767 766 766 766 766 766 766 766 766 766 766 766 766 766 766 766 765 765 765 765 765 764 764 764 763 763 762 762 761 761 760 760 760 759 759 758 757 757 756 756 755 755 755 754 754 754 753 753 753 752 752 752 752 751 751 750 750 749 749 748 747 747 747 746 746 745 745 744 744
768 768 768 768 768 768 768 768 768 768 767 767 767 766 766 766 766 766 765 765 765 764 764 764 763 763 762 762 761 761 760 760 760 759 758 758 757 756 756 755 755 755 754 754 753 753 753 752 752 751 751 751 750 750 750 749 749 748 747 747 746 746 745 745 744 744 743 743 742
769 769 769 769 769 769 769 768 768 768 768 768 767 767 767 766 766 766 766 765 765 765 765 764 764 763 763 762 762 761 760 760 759 759 758 757 757 756 755 755 755 754 753 753 752 752 752 751 751 750 750 750 749 749 748 748 747 746 746 745 745 744 744 743 743 742 742 741 740
770 770 770 770 769 769 769 769 769 769 769 768 768 768 768 767 767 767 766 766 766 765 765 764 764 763 763 762 761 761 760 759 759 758 757 757 756 755 755 754 754 753 752 752 751 751 750 750 750 749 749 749 748 748 747 746 745 745 744 744 743 742 742 741 741 740 740 739 739
770 770 770 770 770 770 770 770 770 770 770 770 769 769 769 768 768 767 767 766 766 765 765 765 764 763 762 762 761 760 760 759 758 757 756 756 755 754 754 753 752 752 751 750 750 750 749 749 748 748 747 747 747 746 745 745 744 743 742 742 741 740 740 740 739 739 738 737 737
771 772 772 772 772 772 772 771 771 771 771 770 770 770 769 769 768 768 767 766 766 765 765 764 763 763 762 761 760 759 759 758 757 756 755 755 754 753 752 751 750 750 750 749 749 748 748 747 747 746 746 746 745 745 744 743 742 741 740 740 739 739 738 738 737 737 736 735 735
773 773 773 773 773 773 773 772 772 771 771 771 770 770 769 769 768 767 767 766 765 765 764 763 762 761 760 760 759 758 757 756 756 755 754 753 753 752 751 750 749 748 748 747 747 746 746 745 745 745 745 745 744 743 743 742 741 740 739 738 738 737 737 736 736 735 735 734 734
775 775 775 774 774 773 773 772 772 771 771 770 770 770 769 768 767 767 766 765 765 764 763 762 761 760 759 758 757 756 756 755 755 754 753 752 751 750 750 749 747 747 746 746 745 745 745 744 744 744 744 743 743 742 741 740 740 739 738 737 737 736 735 735 735 734 733 732 732
775 775 775 774 773 773 772 772 772 771 770 770 769 769 768 767 767 766 765 764 764 763 762 761 760 759 758 757 756 755 754 754 753 752 752 751 750 749 748 748 746 745 745 745 744 744 743 743 743 742 742 742 742 741 741 740 739 738 737 736 736 735 734 734 733 733 732 731 731
775 775 774 773 773 772 772 772 771 770 770 769 769 768 767 766 766 765 764 764 763 762 761 760 759 758 757 756 755 754 753 752 752 751 750 750 749 748 748 747 746 745 744 743 743 742 742 742 742 741 742 741 741 740 740 739 738 737 736 735 735 734 733 732 732 731 731 730 729